Volver al catálogo

FENGYUN 1C DEB

LostSSO
NORAD 31257·DEBRIS·🇨🇳 China

Lanzado May 10, 1999 desde Taiyuan Satellite Launch Center

Loading…

Próximos Pases (próximas 24 horas)

TLE

ObsoletoSource: Space-Track

Época: Dec 31, 2024, 01:41 UTC

1 31257U 99025BMP 24366.07037421  .00021482  00000-0  92020-2 0  9990
2 31257  98.7391 101.8773 0099314 342.0859  17.6827 14.22201234908156

Sigue FENGYUN 1C DEB en tiempo real con AllMySat

Download on the App Store